Weather Service Report


881 
ASUS42 KTBW 271117
RWRFL 
FLORIDA REGIONAL WEATHER ROUNDUP
NATIONAL WEATHER SERVICE TAMPA BAY RUSKIN FL
700 AM EDT MON JUN 27 2016

NOTE: "FAIR" INDICATES FEW OR NO CLOUDS BELOW 12,000 FEET WITH NO
SIGNIFICANT WEATHER AND/OR OBSTRUCTIONS TO VISIBILITY.

FLZ001>010-012>015-112-114-115-271200-
PANHANDLE FLORIDA
  
CITY           SKY/WX    TMP DP  RH WIND       PRES   REMARKS
PENSACOLA      CLEAR     76  73  91 CALM      30.07S                  
PENSACOLA NAS  MOCLDY    79  75  87 CALM      30.06                   
CRESTVIEW      MOCLDY    72  70  93 CALM      30.10R                  
DUKE FIELD     FAIR      73  69  88 NE2       30.08R                  
VALPARAISO     MOCLDY    75  69  82 NE6       30.07R                  
MARY ESTHER    MOCLDY    73  71  94 N3        30.06                   
PANAMA CITY    FAIR      72  70  93 NE5       30.07S                  
TYNDALL AFB    CLEAR     74  72  94 NE5       30.08R                  
APALACHICOLA   PTCLDY    74  74 100 NE7       30.07S                  

STATION/POSITION SKY/WX   TEMP    WIND        PRES    WAVE   SWELL
                          AIR SEA DIR/SP/G            HT/PER HT/PER
                          (F)     (DEG/KT/KT) (MB)    (FT/S) (FT/S)
30.1N   87.6W              85 87              1017.3R   1/ 4
29.2N   88.2W              84 86  270/  6/  6 1017.5R
28.8N   86.0W              82 84  340/  4/  6 1018.3R   1
PANAMA CITY BEAC           76 82   60/  8/  9 1018.4F
TOWER C                    81      40/  6/  6 1019.0R
28.5N   84.5W              83 84  110/  2/  2 1018.1F   1

$$
FLZ011-016>038-118-127-128-134-139-239-271200-
NORTH FLORIDA
  
CITY           SKY/WX    TMP DP  RH WIND       PRES   REMARKS
MARIANNA       CLOUDY    73  73 100 CALM      30.09S                  
TALLAHASSEE    PTCLDY    74  70  87 CALM      30.09S                  
PERRY          MOCLDY    71  68  91 CALM      30.09F                  
LIVE OAK         N/A     72  72 100 CALM      30.11S                  
CROSS CITY       N/A     73  70  90 CALM      30.07S                  
LAKE CITY      CLOUDY    70  70 100 CALM      30.10S                  
GAINESVILLE    CLEAR     70  69  97 CALM      30.09R                  
WILLISTON      FAIR      72  72 100 CALM      30.09S                  
MAYPORT NAS    PTCLDY    79  74  84 CALM      30.08R                  
JACKSONVILLE   MOCLDY    74  74 100 NW3       30.08R                  
JAX NAS        MOCLDY    79  74  84 NW3       30.08S                  
JAX CECIL      CLOUDY    70  70 100 CALM      30.09R FOG              
FERNANDINA BEA FAIR      77  75  94 CALM      30.07R                  
ST AUGUSTINE   PTCLDY    75  73  93 W5        30.09R FOG              
PALM COAST     CLEAR     72  72 100 CALM      30.08R                  

STATION/POSITION SKY/WX   TEMP    WIND        PRES    WAVE   SWELL
                          AIR SEA DIR/SP/G            HT/PER HT/PER
                          (F)     (DEG/KT/KT) (MB)    (FT/S) (FT/S)
SHELL POINT                73     350/  5/  7 1017.8
KEATON BEACH               74      50/  5/  6 1018.0F
CEDAR KEY                  79      50/  5/  6 1018.5R
FERNANDINA                 78 84   CALM  /  1 1018.4R
MAYPORT                    79 83   10/  4/  5 1018.6R
31.4N   80.9W              80 82  360/  8/ 10 1018.3R   2/ 8   2/ 8
ST AUGUSTINE               76 83  280/  5/  6 1019.3R

$$
FLZ040-043>046-052-053-057-058-063-144-271200-
INTERIOR CENTRAL FLORIDA
  
CITY           SKY/WX    TMP DP  RH WIND       PRES   REMARKS
OCALA          CLEAR     70  66  88 CALM      30.09R                  
THE VILLAGES     N/A     73  73 100 CALM      29.99R                  
LEESBURG       CLEAR     74  71  91 CALM      30.09R                  
SANFORD        CLEAR     75  70  84 W5        30.07R                  
ORLANDO EXEC   CLEAR     77  71  82 CALM      30.07S                  
ORLANDO INTL   PTCLDY    75  71  87 NW5       30.07S                  
KISSIMMEE      CLEAR     73  72  96 W3        30.08S                  
WINTER HAVEN   CLEAR     73  71  93 NW3       30.09R                  
LAKELAND       CLEAR     72  72 100 CALM      30.08S                  
BARTOW         FAIR      72 N/A N/A CALM      30.08S                  
OKEECHOBEE     CLEAR     70  70 100 NE3       30.07S                  

$$
FLZ041-047-054-059-064-141-147-271200-
EAST CENTRAL FLORIDA
  
CITY           SKY/WX    TMP DP  RH WIND       PRES   REMARKS
ORMOND BEACH   CLEAR     72  72 100 CALM      30.07  FOG              
DAYTONA BEACH  PTCLDY    74  72  93 NW5       30.08R                  
DELAND           N/A     75  72  88 CALM      30.09S                  
NEW SMYRNA BEA PTCLDY    75  72  88 W7        30.07                   
JFK SPACE CTR  CLEAR     74  71  89 W1        30.06R                  
TITUSVILLE     PTCLDY    73  72  94 VRB3      30.07                   
CAPE CANAVERAL CLEAR     76  72  86 NW6       30.06R                  
PATRICK AFB    CLEAR     78  73  84 NW6       30.05S                  
MELBOURNE      CLEAR     73  71  93 W5        30.06S                  
VERO BEACH     CLEAR     74  71  91 CALM      30.07R                  
FT PIERCE      CLEAR     73  71  93 CALM      30.06S                  
STUART         PTCLDY    79  75  89 CALM      30.07S                  

STATION/POSITION SKY/WX   TEMP    WIND        PRES    WAVE   SWELL
                          AIR SEA DIR/SP/G            HT/PER HT/PER
                          (F)     (DEG/KT/KT) (MB)    (FT/S) (FT/S)
28.5N   80.2W              81 83  300/  6/  8 1017.9R
28.9N   78.5W              81 83  230/ 12/ 16 1017.3R
TRIDENT PIER               78 85  270/  3/  5 1017.8R
28.4N   80.5W                 84                N/A     1/ 9
27.5N   80.2W                 83                N/A     1/ 8

$$
FLZ050-056-061-142-242-148-248-149-249-151-251-155-255-
160-260-271200-
WEST CENTRAL FLORIDA
  
CITY           SKY/WX    TMP DP  RH WIND       PRES   REMARKS
CRYSTAL RIVER  FAIR      72  70  94 CALM      30.08S                  
INVERNESS      FAIR      70  70 100 CALM      30.09R FOG              
BROOKSVILLE    CLEAR     71  70  96 CALM      30.09S FOG              
ZEPHYRHILLS    FAIR      56  56 100 CALM      30.09R FOG              
CLEARWATER AIR FAIR      73  70  88 CALM      30.07R                  
ST PETE CLEARW CLEAR     74  69  85 CALM      30.07R                  
TAMPA INTL     PTCLDY    75  72  90 CALM      30.08R                  
TAMPA EXEC       N/A     72  70  94 CALM      30.09R                  
PLANT CITY     CLEAR     73  73 100 CALM      30.10R FOG              
MACDILL AFB    CLEAR     71  71 100 CALM      30.07R                  
PETER O KNIGHT CLEAR     77  75  94 CALM      30.08R                  
ST PETERSBURG  CLEAR     79  70  74 CALM      30.05S                  
SARASOTA       CLEAR     74  70  87 CALM      30.05S                  
VENICE         NOT AVBL                                               

STATION/POSITION SKY/WX   TEMP    WIND        PRES    WAVE   SWELL
                          AIR SEA DIR/SP/G            HT/PER HT/PER
                          (F)     (DEG/KT/KT) (MB)    (FT/S) (FT/S)
27.3N   84.2W                 83                N/A     2/ 4
CLEARWATER BEACH           80 87  100/  4/  4 1018.1R
MIDDLE TAMPA BAY                   CALM  /  1 1018.4R
VENICE                     74 85   70/  6/  7 1017.6R

$$
FLZ066-069-070-075>078-162-262-165-265-271200-
SOUTHWEST FLORIDA AND KEYS
  
CITY           SKY/WX    TMP DP  RH WIND       PRES   REMARKS
PUNTA GORDA    CLEAR     71  70  96 N3        30.08R                  
FT MYERS       CLEAR     72  70  93 CALM      30.05S                  
SOUTHWEST INTL CLEAR     73  70  90 CALM      30.06R                  
NAPLES         PTCLDY    73  72  96 NE7       30.05S                  
MARCO ISLAND   CLEAR     73  68  83 NE6       30.05F                  
MARATHON       PTCLDY    82  76  81 SE5       30.03R                  
KEY WEST NAS   PTCLDY    81  74  79 SE6       30.02R                  
KEY WEST INTL  PTCLDY    82  76  81 SE5       30.03R                  

STATION/POSITION SKY/WX   TEMP    WIND        PRES    WAVE   SWELL
                          AIR SEA DIR/SP/G            HT/PER HT/PER
                          (F)     (DEG/KT/KT) (MB)    (FT/S) (FT/S)
NAPLES                        87              1017.5R
26.0N   85.6W              83 85  130/  4/  6 1017.9R   1/ 4
DRY TORTUGAS               83      90/  6/  7 1017.0R
SAND KEY                   83     130/  5/  6 1017.1R
LONG KEY                   82 87  140/  9/ 10 1016.8R

$$
FLZ067-068-071>074-168-172>174-271200-
SOUTHEAST FLORIDA 
  
CITY           SKY/WX    TMP DP  RH WIND       PRES   REMARKS
W PALM BEACH   PTCLDY    79  74  84 N5        30.06R                  
BOCA RATON     CLEAR     79  77  94 CALM      30.05                   
FT LAUDER-EXEC PTCLDY    78  74  87 NW5       30.04S                  
FT LAUDERDALE  PTCLDY    80  75  84 NW5       30.03S                  
POMPANO BEACH  PTCLDY    79  75  87 NW6       30.04S                  
PEMBROKE PINES CLEAR     78  75  90 NW5       30.05S                  
OPA LOCKA      CLEAR     79  76  90 NW8       30.04S                  
MIAMI          MOCLDY    80  76  87 VRB3      30.04S                  
WEST KENDALL   CLEAR     78  74  87 CALM      30.03F                  
HOMESTEAD      MOCLDY    77  74  91 VRB2      30.03F                  

STATION/POSITION SKY/WX   TEMP    WIND        PRES    WAVE   SWELL
                          AIR SEA DIR/SP/G            HT/PER HT/PER
                          (F)     (DEG/KT/KT) (MB)    (FT/S) (FT/S)
PORT EVERGLADES            82     190/  1/  2 1017.1R
VIRGINIA KEY               81 87  150/ 11/ 13 1017.6R
FOWEY ROCKS                82 84  170/  6/  7 1017.6S
SETTLEMENT POINT           83     120/  3/  4 1018.3R

$$

  

Return to Home page


Western Regional Climate Center, wrcc@dri.edu